Weather History for Sanford, FL

Change the Weather History Date:

Sunday, June 9, 2013

  Actual Average Record
Temperature  
Mean Temperature 79 °F -  
Max Temperature 87 °F 89 °F 99 °F (1985)
Min Temperature 71 °F 68 °F 61 °F (1966)
Cooling Degree Days 14    
Growing Degree Days 29 (Base 50)    
Moisture  
Dew Point 73 °F    
Average Humidity 82    
Maximum Humidity 100    
Minimum Humidity 55    
Precipitation  
Precipitation 0.06 in - - ()
Sea Level Pressure  
Sea Level Pressure 30.10 in    
Wind  
Wind Speed 6 mph (ESE)    
Max Wind Speed 15 mph    
Max Gust Speed 18 mph    
Visibility 10 miles    
Events Rain    
Averages and records for this station are not official NWS values.
T = Trace of Precipitation, MM = Missing Value Source: NWS Daily Summary

Daily Weather History Graph

Daily Weather History Graph

Search for Another Location

Airport:

Trip Planner

Search our weather history database for the weather conditions in past years. The results will help you decide how hot, cold, wet, or windy it might be!

Date:

Astronomy

Jun. 09, 2013 Rise Set
Actual Time 6:26 AM EDT 8:22 PM EDT
Civil Twilight 5:59 AM EDT 8:49 PM EDT
Nautical Twilight 5:26 AM EDT 9:21 PM EDT
Astronomical Twilight 4:52 AM EDT 9:56 PM EDT
Moon 7:16 AM EDT (6/9) 9:13 PM EDT (6/9)
Length of Visible Light 14h 50m
Length of Day
13h 56m
New Moon, 1% of the Moon is Illuminated
Jun 9
New Moon
Jun 16
First Quarter
Jun 23
Full
Jun 30
Last Quarter
Jul 8
New

Hourly Weather History & Observations

Time (EDT) Temp. Heat Index Dew Point Humidity Pressure Visibility Wind Dir Wind Speed Gust Speed Precip Events Conditions
12:53 AM 72.0 °F - 71.1 °F 97% 30.11 in 10.0 mi SE 6.9 mph - N/A   Clear
1:53 AM 72.0 °F - 71.1 °F 97% 30.11 in 10.0 mi ESE 4.6 mph - N/A   Clear
2:53 AM 72.0 °F - 70.0 °F 93% 30.10 in 10.0 mi ESE 4.6 mph - N/A   Clear
3:53 AM 71.1 °F - 70.0 °F 96% 30.09 in 10.0 mi ESE 3.5 mph - 0.01 in   Clear
4:53 AM 71.1 °F - 71.1 °F 100% 30.09 in 10.0 mi ESE 3.5 mph - N/A   Clear
5:53 AM 73.0 °F - 71.1 °F 93% 30.09 in 10.0 mi Calm Calm - N/A   Clear
6:53 AM 72.0 °F - 71.1 °F 97% 30.11 in 10.0 mi Calm Calm - N/A   Clear
7:53 AM 73.9 °F - 72.0 °F 93% 30.12 in 10.0 mi East 3.5 mph - N/A   Clear
8:53 AM 77.0 °F - 73.9 °F 90% 30.13 in 10.0 mi SE 6.9 mph - N/A   Clear
9:53 AM 80.1 °F 85.1 °F 75.0 °F 85% 30.12 in 10.0 mi SE 8.1 mph - N/A   Clear
10:53 AM 84.0 °F 91.9 °F 75.0 °F 74% 30.12 in 10.0 mi South 10.4 mph - N/A   Scattered Clouds
11:53 AM 84.9 °F 92.1 °F 73.9 °F 69% 30.12 in 10.0 mi SSE 5.8 mph - N/A   Partly Cloudy
12:53 PM 86.0 °F 93.8 °F 73.9 °F 67% 30.12 in 10.0 mi SE 5.8 mph - N/A   Mostly Cloudy
1:53 PM 82.0 °F 88.6 °F 75.0 °F 79% 30.11 in 10.0 mi ENE 9.2 mph - 0.00 in   Overcast
2:04 PM 80.6 °F 86.2 °F 75.2 °F 84% 30.11 in 7.0 mi East 5.8 mph - 0.01 in Rain Light Rain
2:12 PM 80.6 °F 85.4 °F 73.4 °F 79% 30.11 in 4.0 mi NE 3.5 mph - 0.03 in Rain Rain
2:53 PM 81.0 °F 87.3 °F 75.9 °F 85% 30.09 in 10.0 mi NNE 12.7 mph - 0.05 in   Mostly Cloudy
3:53 PM 84.0 °F 91.9 °F 75.0 °F 74% 30.06 in 10.0 mi ESE 12.7 mph 18.4 mph 0.00 in   Mostly Cloudy
4:15 PM 87.8 °F 92.6 °F 69.8 °F 55% 30.06 in 10.0 mi ESE 13.8 mph - N/A   Mostly Cloudy
4:53 PM 86.0 °F 92.2 °F 72.0 °F 63% 30.05 in 10.0 mi SE 15.0 mph - N/A   Partly Cloudy
5:53 PM 82.9 °F 88.0 °F 72.0 °F 69% 30.04 in 10.0 mi SE 13.8 mph - N/A   Clear
6:53 PM 82.0 °F 86.7 °F 72.0 °F 71% 30.06 in 10.0 mi ESE 9.2 mph - N/A   Clear
7:53 PM 80.1 °F 83.6 °F 71.1 °F 74% 30.09 in 10.0 mi East 6.9 mph - N/A   Clear
8:53 PM 78.1 °F - 71.1 °F 79% 30.09 in 10.0 mi ESE 6.9 mph - N/A   Clear
9:53 PM 77.0 °F - 73.0 °F 88% 30.10 in 10.0 mi ESE 5.8 mph - N/A   Clear
10:53 PM 77.0 °F - 73.0 °F 88% 30.10 in 10.0 mi SE 8.1 mph - N/A   Clear
11:53 PM 77.0 °F - 73.0 °F 88% 30.10 in 10.0 mi SSE 6.9 mph - N/A   Clear